Location: U-46 Planetarium
(42.0300°N, 88.2740°W)
Time: 01:15:02
(UTC-05:00)

NOSS 3-2 (C) - Pass Details

Date: 16 December 2017
Orbit: 853 x 1359 km, 63.4° (Epoch: 24 June)

Event Time Altitude Azimuth Distance (km) Brightness Sun altitude
Rises 17:04:15 0° 326° (NNW) 3,945 6.8 -7.6°
Reaches altitude 10° 17:07:01 10° 334° (NNW) 3,058 6.1 -8.1°
Maximum altitude 17:14:01 42° 44° (NE) 1,711 4.4 -9.3°
Drops below altitude 10° 17:21:39 10° 113° (ESE) 3,347 5.9 -10.6°
Sets 17:24:48 0° 120° (ESE) 4,351 6.5 -11.1°
